Regional Weather Roundup
Issued by NWS Cleveland, OH

Home | Current Version | Previous Version | Graphics & Text | Print | Product List | Glossary On
Versions: 1 2 3 4 5 6 7 8 9 10 11 12 13 14 15 16 17 18 19 20 21 22 23 24 25 26 27 28 29 30 31 32 33 34 35 36 37 38 39 40 41 42 43 44 45 46 47 48 49 50
000
ASUS41 KCLE 251710
RWRCLE
OHIO REGIONAL WEATHER ROUNDUP
NATIONAL WEATHER SERVICE WILMINGTON, OH
100 PM EDT MON MAY 25 2015

NOTE: "FAIR" INDICATES FEW OR NO CLOUDS BELOW 12,000 FEET WITH NO
SIGNIFICANT WEATHER AND/OR OBSTRUCTIONS TO VISIBILITY.

OHZ001>008-015>018-024>027-034-035-043-044-251800-
   NORTHWEST OHIO

CITY           SKY/WX    TMP DP  RH WIND       PRES   REMARKS
DEFIANCE       PTSUNNY   78  62  57 SW18G33   30.01S
FINDLAY        LGT RAIN  76  62  62 SW22G30   30.05S
TOLEDO EXPRESS PTSUNNY   78  61  55 SW20G29   30.01S
TOLEDO EXEC    CLOUDY    80  59  48 SW25G37   30.02S
LIMA           CLOUDY    74  63  68 SW17G32   30.07R
$$

OHZ009>014-019>023-028>033-038-089-251800-
   NORTHEAST OHIO

CITY           SKY/WX    TMP DP  RH WIND       PRES   REMARKS
CLE-HOPKINS    CLOUDY    80  60  50 SW21G29   30.08F
CLE-LAKEFRONT  CLOUDY    81  59  47 S16G31    30.05F
CUY CO. ARPT   MOSUNNY   82  63  51 S14G23    30.07F
LORAIN-ELYRIA  LGT RAIN  82  60  47 SW30G39   30.06F
ASHTABULA      CLOUDY    78  60  53 S16G22    30.10F
AKRON-CANTON   PTSUNNY   79  58  48 SW16G28   30.13F
WOOSTER        PTSUNNY   82  58  43 SW18G29   30.12F
MANSFIELD      PTSUNNY   76  61  59 S25G33    30.10F
YOUNGSTOWN     CLOUDY    76  58  53 S13G20    30.14F
$$

OHZ042-051>053-060>062-070>072-077>081-251800-
  SOUTHWEST OHIO

CITY           SKY/WX    TMP DP  RH WIND       PRES   REMARKS
CINC-COVINGTON CLOUDY    70  63  78 SW13G20   30.15S
CINC-LUNKEN    LGT RAIN  73  64  73 S16G22    30.15S
HAMILTON       CLOUDY    72  64  76 SW8G21    30.14S
DAYTON         CLOUDY    72  64  76 SW20G32   30.13R
WRIGHT-PAT AFB PTSUNNY   71  64  78 SW23G29   30.13R
DAYTON GENERAL CLOUDY    71  63  75 SW17G25   30.14R
WILMINGTON     CLOUDY    76  58  53 SW25G35   30.13R
$$

OHZ036-037-039>041-045>050-054>059-063>069-073>076-082>088-251800-
  CENTRAL AND SOUTHEAST OHIO

CITY           SKY/WX    TMP DP  RH WIND       PRES   REMARKS
COLUMBUS       PTSUNNY   80  60  50 SW20G28   30.12F
OSU AIRPORT    LGT RAIN  80  60  50 SW26G32   30.11F
BOLTON FIELD   PTSUNNY   81  63  54 SW25G36   30.13S
RICKENBACK AFB PTSUNNY   81  61  50 SW18G31   30.12F
NEWARK         MOSUNNY   81  61  50 SW14G23   30.12F
MARION         CLOUDY    76  62  62 SW17G26   30.10F
LANCASTER      MOSUNNY   83  59  44 S15G24    30.14F
ZANESVILLE     CLOUDY    76  57  51 SW13      30.16F
NEW PHILLY     PTSUNNY   81  59  47 S10       30.16S
$$


USA.gov is the U.S. government's official web portal to all federal, state and local government web resources and services.